FW3040 Weather Reports


time (UTC)temp
C
wind
direction
speed
KPH
gust
KPH
rain 1hr
cm
rain 24hr
cm
rain mn
cm
humidity
%
barometer
mb
20260503185733 16 244 9.7 12.9 0.00 0.05 0.03 43 1019.0
20260503184732 16 267 8.0 16.1 0.00 0.05 0.03 43 1019.0
20260503184632 16 281 3.2 12.9 0.00 0.05 0.03 42 1019.1
20260503183648 16 252 1.6 6.4 0.00 0.05 0.03 41 1019.2
20260503181730 16 258 1.6 4.8 0.00 0.05 0.03 43 1019.4
20260503181630 16 278 1.6 6.4 0.00 0.05 0.03 43 1019.4
20260503180631 15 263 6.4 11.3 0.00 0.05 0.03 44 1019.3
20260503175631 15 268 4.8 8.0 0.00 0.08 0.03 44 1019.4
20260503174632 15 241 12.9 17.7 0.00 0.10 0.03 45 1019.3
20260503173633 15 261 6.4 9.7 0.00 0.10 0.03 45 1019.4
20260503172730 15 258 12.9 16.1 0.00 0.13 0.03 47 1019.4
20260503171747 15 252 11.3 17.7 0.00 0.15 0.03 47 1019.5
20260503150131 13 255 9.7 14.5 0.03 0.33 0.03 50 1020.1
20260503140231 12 261 4.8 9.7 0.00 0.33 0.00 56 1020.0
20260503130531 10 246 0.0 6.4 0.00 0.38 0.00 75 1019.6
20260503110733 6 360 0.0 0.0 0.00 0.53 0.00 94 1017.7
20260503081032 7 360 0.0 0.0 0.00 0.56 0.00 90 1015.3
20260503072230 7 360 0.0 0.0 0.00 0.56 0.00 91 1014.8
20260503071231 7 360 0.0 0.0 0.00 0.56 0.00 91 1014.7
20260503070232 7 360 0.0 0.0 0.00 0.56 0.00 92 1014.6
20260503054533 8 360 0.0 0.0 0.00 0.56 0.00 89 1014.4
20260503053529 9 360 0.0 0.0 0.00 0.56 0.00 89 1014.4
20260503052533 9 360 0.0 0.0 0.00 0.56 0.00 89 1014.3
20260503052432 9 360 0.0 0.0 0.00 0.56 0.00 89 1014.4
20260503050530 9 360 0.0 0.0 0.00 0.56 0.00 88 1014.5
20260503045630 9 360 0.0 0.0 0.00 0.56 0.00 87 1014.5
20260503044631 10 360 0.0 0.0 0.00 0.56 0.00 87 1014.6
20260503043730 10 360 0.0 0.0 0.00 0.56 0.00 87 1014.6
20260503042731 10 360 0.0 0.0 0.00 0.56 0.00 86 1014.5
20260503041731 10 360 0.0 0.0 0.00 0.56 0.00 87 1014.6
20260503040830 10 360 0.0 0.0 0.00 0.56 0.00 86 1014.5
20260503034942 10 360 0.0 0.0 0.00 0.56 0.56 86 1014.4
20260503032924 10 360 0.0 1.6 0.00 0.58 0.56 88 1014.4
20260503031925 10 360 0.0 0.0 0.00 0.64 0.56 88 1014.5
20260503030926 10 360 0.0 0.0 0.00 0.64 0.56 88 1014.4
20260503030025 10 360 0.0 0.0 0.00 0.64 0.56 89 1014.3
20260503025027 10 360 0.0 0.0 0.00 0.69 0.56 89 1014.5
20260503024025 10 360 0.0 0.0 0.00 0.69 0.56 89 1014.4
20260503023124 10 360 0.0 0.0 0.00 0.69 0.56 89 1014.4
20260503022026 10 360 0.0 0.0 0.00 0.69 0.56 89 1014.6
20260503021024 10 360 0.0 0.0 0.00 0.69 0.56 89 1014.5
20260503015025 10 360 0.0 0.0 0.00 0.69 0.56 88 1014.5
20260503014041 10 360 0.0 0.0 0.00 0.69 0.56 87 1014.5
20260503013123 10 360 0.0 0.0 0.00 0.69 0.56 87 1014.3
20260503012126 10 360 0.0 0.0 0.00 0.69 0.56 87 1014.2
20260503011124 10 360 0.0 0.0 0.00 0.69 0.56 87 1014.1
20260503010142 10 360 0.0 0.0 0.00 0.69 0.56 87 1014.0
20260503005127 10 360 0.0 0.0 0.00 0.69 0.56 87 1013.9
20260503005024 10 360 0.0 0.0 0.00 0.69 0.56 87 1013.9
20260503004024 10 360 0.0 0.0 0.00 0.71 0.56 87 1013.8
20260503003925 10 360 0.0 0.0 0.00 0.71 0.56 87 1013.7
20260503002926 10 360 0.0 0.0 0.00 0.71 0.56 86 1013.9
20260503001941 10 360 0.0 0.0 0.00 0.76 0.56 86 1013.7
20260503001026 11 360 0.0 0.0 0.00 0.76 0.56 85 1013.6
20260503000125 11 360 0.0 0.0 0.00 0.76 0.56 86 1013.6
20260502235125 11 360 0.0 0.0 0.00 0.76 0.56 86 1013.3
20260502234126 11 360 0.0 0.0 0.00 0.76 0.56 85 1013.2
20260502233125 11 360 0.0 0.0 0.00 0.76 0.56 84 1013.2
20260502232144 11 360 0.0 0.0 0.00 0.76 0.56 84 1013.0
20260502231223 11 337 0.0 0.0 0.00 0.76 0.56 86 1013.1
20260502230224 11 337 0.0 0.0 0.00 0.76 0.56 85 1013.0
20260502224225 12 337 0.0 0.0 0.00 0.76 0.56 87 1013.1
20260502223226 12 337 0.0 0.0 0.00 0.76 0.56 89 1013.1
20260502222325 12 337 0.0 0.0 0.00 0.76 0.56 90 1013.0
20260502221225 12 337 0.0 0.0 0.00 0.76 0.56 90 1013.0
20260502220225 12 337 0.0 0.0 0.00 0.76 0.56 90 1013.3
20260502215226 12 337 0.0 0.0 0.00 0.76 0.56 90 1013.2
20260502214225 12 337 0.0 0.0 0.00 0.76 0.56 90 1013.3
20260502213226 12 337 0.0 0.0 0.00 0.76 0.56 90 1013.2
20260502212223 12 337 0.0 3.2 0.00 0.76 0.56 90 1013.3
20260502211226 12 353 0.0 3.2 0.00 0.76 0.56 91 1013.1
20260502205324 12 247 0.0 0.0 0.00 0.76 0.56 92 1013.0
20260502203325 12 90 0.0 1.6 0.03 0.76 0.56 93 1013.2
20260502202325 12 90 0.0 0.0 0.03 0.76 0.56 93 1013.0
20260502201325 12 225 0.0 1.6 0.03 0.76 0.56 94 1013.0
20260502200325 12 225 0.0 0.0 0.03 0.76 0.56 93 1012.8
20260502194325 12 225 0.0 0.0 0.00 0.71 0.53 94 1013.1
20260502193424 12 247 0.0 0.0 0.00 0.71 0.53 94 1013.4
20260502192524 12 247 0.0 0.0 0.00 0.71 0.53 94 1013.7
20260502191525 12 90 0.0 1.6 0.00 0.71 0.53 95 1013.6
20260502191426 12 90 0.0 0.0 0.00 0.71 0.53 94 1013.5